Regional Weather Roundup
Issued by NWS

Home | Current Version | Previous Version | Text Only | Print | Product List | Glossary Off
Versions: 1 2 3 4 5 6 7 8 9 10 11 12 13 14 15 16 17 18 19 20 21 22 23 24 25 26 27 28 29 30 31 32 33 34 35 36 37 38 39 40 41 42 43 44 45 46 47 48 49 50

000
ASUS45 KBOU 182310
RWRCO

WEATHER ROUNDUP FOR COLORADO
NATIONAL WEATHER SERVICE DENVER/BOULDER CO
400 PM MST SUN FEB 18 2018

NOTE: "FAIR" INDICATES FEW OR NO CLOUDS BELOW 12000 FEET WITH NO
SIGNIFICANT WEATHER AND/OR OBSTRUCTIONS TO VISIBILITY.

COZ001>005-013-030-031-190000-
...NORTHWEST COLORADO...

CITY           SKY/WX    TMP DP  RH WIND       PRES   REMARKS
CRAIG          FAIR      47  22  37 SW16G32   29.47F
HAYDEN         FAIR      45  20  36 W24G37    29.47F
MEEKER         FAIR      50  19  29 SW26G37   29.48F
RANGELY        FAIR      58  17  20 SW23G32   29.43F
RABBIT EARS PA CLOUDY    32  18  55 SW12G31   29.57F WCI  23
STEAMBOAT SPGS PTSUNNY   45  18  33 W12G21    29.49F
WALDEN         FAIR      39  16  38 SW17G24   29.53S
$$

COZ006>008-011-190000-
...WEST CENTRAL VALLEYS...

CITY           SKY/WX    TMP DP  RH WIND       PRES   REMARKS
GRAND JUNCTION FAIR      60  32  34 S17G23    29.51F
MONTROSE       FAIR      56  14  19 SW30G47   29.60F
EAGLE          FAIR      51  17  26 SW31G45   29.54S
RIFLE          FAIR      54  21  27 SW21      29.52F
DELTA          FAIR      62  14  15 SW24G36   29.58F
NUCLA          FAIR      55  16  21 S28G39    29.65F
$$

COZ017>023-064>068-190000-
...SOUTHWEST COLORADO...

CITY           SKY/WX    TMP DP  RH WIND       PRES   REMARKS
DURANGO        FAIR      49  20  31 SW10      29.78F
CORTEZ         FAIR      56  19  23 S18G32    29.73F
PAGOSA SPRINGS FAIR      45  11  25 SW6       29.83F THUNDER
TELLURIDE      PTSUNNY   41  12  30 S18G25    29.76F
WOLF CREEK PAS FAIR      21  14  73 S36G51    29.84F WCI   2
$$

COZ009-010-012-014-032>034-037-058>063-190000-
...CENTRAL COLORADO...

CITY           SKY/WX    TMP DP  RH WIND       PRES   REMARKS
ASPEN          FAIR      46  14  27 SW9G20    29.58F
BUENA VISTA    FAIR      49  -3  11 SW44G59   29.52F HAZE
COPPER MTN     LGT SNOW  34   9  35 SW22G38   29.68S WCI  22
BERTHOUD PASS  FAIR      27  14  59 W25G53    29.65R WCI  11
COTTONWOOD PAS FAIR      45  -4  13 W46G64    29.57F
GUNNISON       FAIR      48   9  20 W16G28    29.66F
GRANBY         FAIR      43  18  37 W14G21    29.56F
KREMMLING      FAIR      50  19  29 SW16G31   29.54F
LEADVILLE      FAIR      37   7  28 SW10G31   29.64S
MONARCH PASS   LGT SNOW  28   9  43 W51G64    29.81F WCI   9
SALIDA         FAIR      55   3  12 SW14G28   29.67F
SUNLIGHT       FAIR      30  19  64 SW21G38   29.66F WCI  17
WILKERSON PASS FAIR      36   0  21 SW14G39   29.68F
$$

COZ069>075-190000-
...SAN LUIS VALLEY/SANGRE DE CRISTO MOUNTAINS...

CITY           SKY/WX    TMP DP  RH WIND       PRES   REMARKS
ALAMOSA        FAIR      47   8  20 SW31G43   29.70F
DEL NORTE      FAIR      44  15  31 W35G48    29.69F
LA VETA PASS   FAIR      39  10  30 S48G84    29.72R
SAGUACHE       FAIR      52   9  17 W25G37    29.64S
$$

COZ035-036-038>040-190000-
...NORTHERN COLORADO FRONT RANGE...

CITY           SKY/WX    TMP DP  RH WIND       PRES   REMARKS
DENVER INTL AP FAIR      66  13  12 NW7       29.41R
AURORA         NOT AVBL
FRONT RANGE AP MOSUNNY   68   9  10 NW12G18   29.42R
ERIE MUNI ARPT FAIR      66   8  10 NW15      29.44S
BOULDER MUN AP FAIR      63  14  15 W17G29    29.39S
CENTENNIAL     FAIR      63   7  11 W23G35    29.44R
BROOMFIELD     NOT AVBL
FORT COLLINS   FAIR      62  15  16 W18G26    29.41S
LONGMONT       FAIR      66  12  12 W12G20    29.41F
$$

COZ041-046-047-076>085-087-088-190000-
...PIKES PEAK/PALMER DIVIDE AND SOUTHERN FOOTHILLS...

CITY           SKY/WX    TMP DP  RH WIND       PRES   REMARKS
COLO. SPRINGS  FAIR      63   1   8 SW21G37   29.50S
A. F. ACADEMY  NOT AVBL
SCHRIEVER AFB  NOT AVBL
CHEYENNE MTN   NOT AVBL
ELLICOTT         N/A    N/A N/A N/A SW15G23   29.49F
FALCON         FAIR      61  -6   6 W10G21    29.53S
FORT CARSON    NOT AVBL
LIMON          FAIR      66  -1   7 SW17G33   29.44R
MONUMENT HILL  FAIR      55   1  11 W26G36    29.53S
CANON CITY     SUNNY     64  12  13 SW28G36   29.46F
WALSENBURG     NOT AVBL
TRINIDAD       FAIR      65   8  10 W26G39    29.57S
$$

COZ042>045-048>051-090-091-190000-
...NORTHEAST COLORADO...

CITY           SKY/WX    TMP DP  RH WIND       PRES   REMARKS
GREELEY ARPT   FAIR      65  13  13 W13       29.41R
AKRON          FAIR      67  15  13 W9        29.40F
BURLINGTON     FAIR      68  16  13 SW17G33   29.43F
WRAY           FAIR      72  12  10 S10       29.38S
YUMA           NOT AVBL
STERLING       FAIR      70  14  11 W15       29.36S
HOLYOKE        FAIR      63  32  31 E20       29.40R
FORT MORGAN    FAIR      68   9  10 W21       29.39S
$$

COZ086-089-092>099-190000-
...SOUTHEAST COLORADO...

CITY           SKY/WX    TMP DP  RH WIND       PRES   REMARKS
PUEBLO         FAIR      67   6   9 MISG      29.45F
LA JUNTA       FAIR      71   5   7 W35G41    29.46F
LAMAR          LGT RAIN  74   8   8 W23G33    29.44F
SPRINGFIELD      N/A     70   5   8 SW23G37   29.52S
$$



USA.gov is the U.S. government's official web portal to all federal, state and local government web resources and services.